Hourly Weather Roundup
Issued by NWS Central Illinois

Home | Current Version | Previous Version | Text Only | Print | Product List | Glossary On
Versions: 1 2 3 4 5 6 7 8 9 10 11 12 13 14 15 16 17 18 19 20 21 22 23 24 25 26 27 28 29 30 31 32 33 34 35 36 37 38 39 40 41 42 43 44 45 46 47 48 49 50
000
NZUS43 KILX 281110
HWRILX

AREA WEATHER ROUNDUP
NATIONAL WEATHER SERVICE, LINCOLN IL
600 AM CDT TUE APR 28 2015


CITY           SKY/WX    TMP DP  RH WIND       PRES   REMARKS
BLOOMINGTON    CLEAR     36  33  88 NE7       30.17R WCI  30
CHAMPAIGN      CLEAR     40  34  79 NE8       30.14S WCI  34
DANVILLE       CLEAR     34  32  92 N9        30.13S WCI  27
DECATUR        CLEAR     37  32  82 N5        30.15R WCI  33
EFFINGHAM      CLEAR     40  33  76 CALM      30.14R
FLORA          CLEAR     39  36  90 N6        30.12R WCI  35
GALESBURG      CLEAR     37  35  94 CALM      30.14F
JACKSONVILLE   CLEAR     38  36  90 W3        30.15S
LACON          CLEAR     35  33  91 CALM      30.16S
LAWRENCEVILLE  CLEAR     42  37  82 NE8       30.11R
LITCHFIELD     CLEAR     39  34  81 NE7       30.13R WCI  34
$$


CITY           SKY/WX    TMP DP  RH WIND       PRES   REMARKS
LINCOLN        CLEAR     39  35  86 NW3       30.17R
MACOMB         CLEAR     38  37  94 CALM      30.17S
MATTOON        CLEAR     35  32  88 N5        30.13R WCI  31
MT CARMEL AP   CLEAR     45  36  70 NE8       30.10R
OLNEY-NOBLE AP CLEAR     41  36  81 N6        30.11R
PARIS          CLEAR     38  35  90 N6        30.15R WCI  33
PEORIA         CLEAR     39  34  82 E5        30.16S
PONTIAC        CLEAR     34  32  92 CALM      30.18R
RANTOUL        CLEAR     38  34  84 NE7       30.15S WCI  33
ROBINSON       CLEAR     38  36  92 N5        30.13R WCI  34
SPRINGFIELD    CLEAR     37  33  85 N6        30.15S WCI  32
TAYLORVILLE    CLEAR     37  32  81 NE6       30.14R WCI  33
$$

...REGIONAL REPORTS...


CITY           SKY/WX    TMP DP  RH WIND       PRES   REMARKS
CHICAGO O`HARE PTCLDY    37  33  85 CALM      30.15R
KANKAKEE       CLEAR     33  33  96 CALM      30.17S FOG
MOLINE         CLEAR     39  35  86 SE3       30.14F
MOUNT VERNON   CLEAR     41  34  75 N6        30.10S
PITTSFIELD     CLEAR     40  37  87 CALM      30.15S
QUINCY         CLEAR     43  36  76 CALM      30.13F
ROCKFORD       PTCLDY    36  32  85 CALM      30.18S
$$


CITY           SKY/WX    TMP DP  RH WIND       PRES   REMARKS
BURLINGTON     CLEAR     41  37  86 SE3       30.13F
CEDAR RAPIDS   CLEAR     39  34  82 NW7       30.14R WCI  34
DES MOINES     PTCLDY    45  37  73 NW3       30.17R
KIRKSVILLE     CLEAR     39  37  92 CALM      30.14F
OTTUMWA        CLEAR     41  37  86 NW6       30.14S
ST LOUIS       PTCLDY    44  37  76 N5        30.13R
$$


CITY           SKY/WX    TMP DP  RH WIND       PRES   REMARKS
TERRE HAUTE    CLEAR     38  35  89 N5        30.13R WCI  34
EVANSVILLE     CLEAR     44  37  76 N7        30.09R
INDIANAPOLIS   PTCLDY    39  34  82 N7        30.11R WCI  34
LAFAYETTE      CLEAR     33  32  96 CALM      30.15R
MADISON        PTCLDY    33  31  92 CALM      30.16S
MILWAUKEE      CLEAR     39  31  72 NW3       30.16R
$$




USA.gov is the U.S. government's official web portal to all federal, state and local government web resources and services.